{"data":{"norad_id":48892,"epoch":"2026-05-25T02:29:25.349568Z","epoch_age_seconds":69149,"freshness":"FRESH","line1":"1 48892U 21059P   26145.10376562  .00001487  00000+0  19226-3 0  9998","line2":"2 48892  96.0086 227.1989 0011042 105.9194 254.3241 14.81798295264824","mean_motion":14.81798295,"eccentricity":0.0011042,"inclination_deg":96.0086,"raan_deg":227.1989,"arg_perigee_deg":105.9194,"mean_anomaly_deg":254.3241,"bstar":0.00019226,"rev_number":26482,"period_min":97.179218309196,"perigee_km":615.92215566286,"apogee_km":631.38490987543,"semimajor_km":7001.7905327691,"source":"CELESTRAK","updated_at":"2026-05-25T13:37:56.975474Z"}}